DW3696 Weather Reports


Display with metric or nautical units.
time (UTC)temp
F
wind
direction
speed
MPH
gust
MPH
rain 1hr
in
rain 24hr
in
rain mn
in
humidity
%
barometer
mb
20220120043708 31 325 0.0 0.0 0.00 0.01 0.00 93 1032.7
20220120042657 31 324 0.0 0.0 0.00 0.01 0.00 93 1032.5
20220120041641 31 324 0.0 0.0 0.00 0.01 0.00 93 1032.3
20220120040622 31 324 0.0 0.0 0.00 0.01 0.00 93 1032.2
20220120035634 31 324 0.0 0.0 0.00 0.01 0.00 93 1032.3
20220120034605 32 325 0.0 0.0 0.00 0.01 0.00 93 1031.9
20220120033628 32 324 0.0 0.0 0.00 0.01 0.00 94 1032.1
20220120032627 31 324 0.0 0.0 0.00 0.01 0.00 93 1031.9
20220120031618 31 324 0.0 0.0 0.00 0.01 0.00 93 1032.0
20220120030611 31 325 0.0 0.0 0.00 0.01 0.00 93 1031.9
20220120025559 31 325 0.0 0.0 0.00 0.01 0.00 93 1031.8
20220120024546 32 324 0.0 0.0 0.00 0.01 0.00 93 1031.7
20220120023534 32 324 0.0 0.0 0.00 0.01 0.00 93 1031.6
20220120022502 32 324 0.0 0.0 0.00 0.01 0.00 93 1031.4
20220120021451 32 324 0.0 0.0 0.00 0.01 0.00 93 1031.3
20220120020511 32 324 0.0 0.0 0.00 0.01 0.00 93 1031.0
20220120015531 32 324 0.0 0.0 0.00 0.01 0.00 93 1030.8
20220120014549 32 324 0.0 0.0 0.00 0.01 0.00 93 1030.8
20220120013544 33 324 0.0 0.0 0.00 0.01 0.00 93 1030.8
20220120012517 33 324 0.0 0.0 0.00 0.01 0.00 93 1030.8
20220120011524 33 324 0.0 0.0 0.00 0.01 0.00 93 1030.8
20220120010504 33 324 0.0 0.0 0.00 0.01 0.00 93 1030.6
20220120005506 33 324 0.0 0.0 0.00 0.01 0.00 93 1030.5
20220120004515 33 324 0.0 0.0 0.00 0.01 0.00 93 1030.4
20220120003536 33 324 0.0 0.0 0.00 0.01 0.00 93 1030.3
20220120002508 33 324 0.0 0.0 0.00 0.01 0.00 92 1030.2
20220120001519 33 324 0.0 0.0 0.00 0.01 0.00 93 1030.0
20220120000521 33 325 0.0 2.0 0.00 0.01 0.00 92 1029.9
20220119235518 33 324 0.0 0.0 0.00 0.01 0.01 92 1029.9
20220119234511 33 324 0.0 0.0 0.00 0.01 0.01 93 1029.8
20220119233525 34 324 0.0 0.0 0.00 0.01 0.01 93 1029.8
20220119232517 34 324 0.0 0.0 0.00 0.01 0.01 93 1029.8
20220119231503 33 324 0.0 1.0 0.00 0.01 0.01 92 1029.6
20220119230433 33 324 0.0 0.0 0.00 0.01 0.01 92 1029.5
20220119225417 34 324 0.0 0.0 0.00 0.01 0.01 92 1029.3
20220119224433 34 324 0.0 0.0 0.00 0.01 0.01 92 1029.2
20220119223402 34 324 0.0 0.0 0.00 0.01 0.01 92 1029.2
20220119222408 34 325 0.0 0.0 0.00 0.01 0.01 92 1029.2
20220119221340 34 324 0.0 0.0 0.00 0.01 0.01 92 1028.9
20220119220309 34 324 0.0 0.0 0.00 0.01 0.01 92 1028.9
20220119215252 35 324 0.0 0.0 0.00 0.01 0.01 91 1028.8
20220119214307 35 324 0.0 0.0 0.00 0.01 0.01 91 1028.4
20220119213316 35 324 0.0 0.0 0.00 0.01 0.01 91 1028.5
20220119212250 35 324 0.0 0.0 0.00 0.01 0.01 91 1028.4
20220119211238 36 324 0.0 0.0 0.00 0.01 0.01 91 1028.3
20220119210210 36 324 0.0 0.0 0.00 0.01 0.01 90 1028.3
20220119205157 36 325 0.0 2.0 0.00 0.01 0.01 91 1028.1
20220119204136 36 324 0.0 0.0 0.00 0.01 0.01 90 1028.0
20220119203128 37 324 0.0 2.0 0.00 0.01 0.01 90 1028.0
20220119202100 37 324 0.0 1.0 0.00 0.01 0.01 90 1027.9
20220119201125 37 324 0.0 1.0 0.00 0.01 0.01 89 1027.7
20220119200112 37 324 0.0 0.0 0.00 0.01 0.01 89 1027.9
20220119195107 37 324 0.0 0.0 0.00 0.01 0.01 89 1027.7
20220119194040 38 325 0.0 0.0 0.00 0.01 0.01 88 1027.6
20220119193043 38 325 0.0 0.0 0.00 0.01 0.01 87 1027.5
20220119192017 39 324 0.0 0.0 0.00 0.01 0.01 87 1027.4
20220119191001 39 324 1.0 3.0 0.00 0.01 0.01 87 1027.3
20220119190015 39 327 1.0 3.0 0.00 0.01 0.01 87 1027.3
20220119184947 40 327 0.0 4.0 0.00 0.01 0.01 86 1027.2
20220119183958 40 327 1.0 8.0 0.00 0.01 0.01 85 1027.2
20220119183000 40 327 2.0 8.0 0.00 0.01 0.01 86 1027.0
20220119182001 40 317 2.0 7.0 0.00 0.01 0.01 85 1026.7
20220119180948 41 304 2.0 6.0 0.00 0.01 0.01 85 1026.7
20220119175916 41 322 2.0 6.0 0.00 0.01 0.01 85 1026.5
20220119174856 41 327 2.0 5.0 0.00 0.01 0.01 85 1026.3
20220119173842 41 324 3.0 7.0 0.00 0.01 0.01 85 1026.2
20220119172806 41 306 2.0 7.0 0.00 0.01 0.01 84 1026.3
20220119171731 41 5 2.0 6.0 0.00 0.01 0.01 84 1026.0
20220119170657 41 324 2.0 6.0 0.00 0.01 0.01 84 1025.8
20220119165705 42 302 0.0 5.0 0.00 0.01 0.01 82 1025.8
20220119164725 42 307 0.0 0.0 0.00 0.01 0.01 82 1025.7
20220119163723 43 304 2.0 6.0 0.00 0.01 0.01 81 1025.3
20220119162713 43 317 2.0 5.0 0.00 0.01 0.01 80 1025.1
20220119161714 44 303 1.0 4.0 0.00 0.01 0.01 78 1025.0
20220119160647 45 329 1.0 2.0 0.00 0.01 0.01 77 1025.0
20220119155650 45 308 2.0 7.0 0.00 0.01 0.01 77 1024.8
20220119154654 46 333 2.0 7.0 0.00 0.01 0.01 76 1024.7
20220119153706 46 327 2.0 6.0 0.00 0.01 0.01 76 1024.8
20220119152636 46 342 3.0 10.0 0.00 0.01 0.01 75 1024.7
20220119151645 46 317 4.0 10.0 0.00 0.01 0.01 74 1024.6
20220119150651 47 336 3.0 16.0 0.00 0.01 0.01 74 1024.5
20220119145714 47 306 4.0 16.0 0.00 0.01 0.01 73 1024.2
20220119144735 47 319 4.0 9.0 0.00 0.01 0.01 75 1024.3
20220119143701 47 306 5.0 11.0 0.00 0.01 0.01 74 1024.1
20220119142642 47 318 5.0 13.0 0.00 0.01 0.01 74 1023.9
20220119141625 48 303 5.0 13.0 0.00 0.01 0.01 73 1023.9
20220119140641 48 327 4.0 12.0 0.00 0.01 0.01 74 1023.9
20220119135634 48 319 4.0 12.0 0.00 0.01 0.01 74 1023.8
20220119134617 48 277 4.0 12.0 0.00 0.01 0.01 75 1023.6
20220119133545 48 315 6.0 12.0 0.00 0.01 0.01 75 1023.4
20220119132545 48 321 4.0 11.0 0.00 0.01 0.01 76 1023.4
20220119131531 47 0 5.0 11.0 0.00 0.01 0.01 77 1023.5
20220119130554 48 319 4.0 8.0 0.00 0.01 0.01 78 1023.2
20220119125612 47 320 4.0 11.0 0.00 0.01 0.01 78 1023.3
20220119124619 47 350 6.0 11.0 0.00 0.01 0.01 78 1023.2
20220119123641 47 271 4.0 12.0 0.00 0.01 0.01 79 1023.1
20220119122617 47 331 5.0 14.0 0.00 0.01 0.01 79 1023.0
20220119121625 47 319 5.0 14.0 0.00 0.01 0.01 79 1023.0
20220119120555 47 350 5.0 12.0 0.00 0.01 0.01 80 1022.8
20220119115609 47 315 4.0 12.0 0.00 0.01 0.01 81 1023.1
20220119114619 47 337 5.0 12.0 0.00 0.01 0.01 81 1023.0
20220119113601 47 336 6.0 15.0 0.00 0.01 0.01 81 1022.5
20220119112612 47 296 6.0 15.0 0.00 0.00 0.00 82 1022.6
20220119111619 47 315 6.0 13.0 0.00 0.00 0.00 85 1022.2
20220119110552 46 327 5.0 11.0 0.00 0.00 0.00 87 1022.4
20220119105545 46 333 4.0 11.0 0.00 0.00 0.00 91 1022.9
20220119104513 45 318 4.0 11.0 0.00 0.00 0.00 94 1022.6
20220119103508 45 260 4.0 11.0 0.00 0.00 0.00 95 1022.3
20220119102457 44 301 3.0 9.0 0.00 0.00 0.00 96 1022.2
20220119101502 45 325 0.0 5.0 0.00 0.00 0.00 96 1022.7
20220119100446 44 305 1.0 5.0 0.00 0.00 0.00 95 1022.5
20220119095439 43 283 2.0 9.0 0.00 0.00 0.00 95 1022.5
20220119094445 43 278 5.0 9.0 0.00 0.00 0.00 95 1022.4
20220119093414 42 248 4.0 8.0 0.00 0.00 0.00 95 1022.2
20220119092412 42 276 3.0 7.0 0.00 0.00 0.00 95 1022.1
20220119091435 42 281 4.0 7.0 0.00 0.00 0.00 95 1022.1
20220119090454 42 283 4.0 11.0 0.00 0.00 0.00 95 1022.1
20220119085429 42 251 5.0 11.0 0.00 0.00 0.00 95 1021.9
20220119084401 41 267 5.0 9.0 0.00 0.00 0.00 95 1021.7
20220119083327 41 267 4.0 9.0 0.00 0.00 0.00 95 1021.7
20220119082259 41 298 4.0 8.0 0.00 0.00 0.00 95 1021.9
20220119081232 40 290 4.0 8.0 0.00 0.00 0.00 95 1021.9
20220119080212 40 246 4.0 8.0 0.00 0.00 0.00 95 1021.8
20220119075210 39 238 1.0 6.0 0.00 0.00 0.00 95 1021.8
20220119074218 39 205 2.0 6.0 0.00 0.00 0.00 95 1021.9
20220119073238 39 239 2.0 4.0 0.00 0.00 0.00 95 1022.1
20220119072215 39 200 3.0 5.0 0.00 0.00 0.00 95 1021.9
20220119071229 39 232 3.0 7.0 0.00 0.00 0.00 95 1022.0
20220119070203 38 198 3.0 11.0 0.00 0.00 0.00 95 1022.2
20220119065221 38 225 3.0 11.0 0.00 0.00 0.00 95 1022.4
20220119064220 37 203 2.0 4.0 0.00 0.00 0.00 95 1022.5
20220119063156 37 207 2.0 5.0 0.00 0.00 0.00 95 1022.7
20220119062150 37 223 2.0 6.0 0.00 0.00 0.00 95 1022.9
20220119061119 37 227 2.0 6.0 0.00 0.00 0.00 95 1023.1
20220119060102 37 211 1.0 4.0 0.00 0.00 0.00 95 1023.3
20220119055110 37 198 1.0 4.0 0.00 0.00 0.00 95 1023.3
20220119054104 37 270 0.0 2.0 0.00 0.00 0.00 95 1023.4
20220119053038 37 270 0.0 3.0 0.00 0.00 0.00 95 1023.9
20220119052024 36 270 0.0 3.0 0.00 0.00 0.00 95 1023.8
20220119051007 36 234 1.0 6.0 0.00 0.00 0.00 95 1024.1
20220119045942 36 221 3.0 6.0 0.00 0.00 0.00 95 1024.0
20220119044930 36 217 3.0 6.0 0.00 0.00 0.00 95 1024.2